[[{"header":{"parameterUnit":"m.s-1","parameterCategory":1,"la1":30.2991,"la2":30.254,"lo1":-89.0895,"lo2":-89.0444,"dx":0.0017,"dy":0.0017,"nx":28,"ny":28,"refTime":"2022-12-16T15:00:00:Z","depth":0,"parameterNumber":2,"parameterNumberName":"U-component_of_WINDS"},"data":[0,0,0,0,0,0,0,0,0,0,0,0,0,0,0,0,0,0,0,0,0,0,0,0,0,0,0,0,0,0,0,0,0,0,0,0,0,0,0,0,0,0,0,0,0,0,0,0,0,0,0,0,0,0,0,0,0,0,-0.0054,-0.0055,0,-0.0143,-0.0145,-0.0146,-0.013,-0.0129,-0.0127,-0.0126,-0.0222,-0.0226,-0.023,0,0,0,0,0,0,0,0,0,0,0,0,0,0.0127,0.0124,-0.0054,-0.0055,-0.0056,-0.0143,-0.0145,-0.0146,-0.0131,-0.0129,-0.0127,-0.0125,-0.0221,-0.0225,-0.023,0,0,0,0,0,0,0,0,0,0,0,0,0,0.0044,0.0122,-0.0054,-0.0059,-0.006,-0.0143,-0.0145,-0.0146,-0.0131,-0.0129,-0.0126,-0.0124,-0.0219,-0.0225,-0.0231,-0.0316,0,0,-0.0249,-0.0252,0,0,0,0,0,0,0,0,0.0049,0.0037,-0.0057,-0.0059,-0.006,-0.0123,-0.0116,-0.0203,-0.0132,-0.0104,-0.0126,-0.0123,-0.0191,-0.02,-0.0222,-0.032,-0.0324,-0.025,-0.0254,-0.0256,-0.0258,0,0,0,0,0,0,0,0.0054,0.0041,-0.0089,-0.0058,-0.006,-0.0058,-0.0067,-0.0133,-0.016,-0.0107,-0.0106,-0.0116,-0.0192,-0.0216,-0.0224,-0.0326,-0.025,-0.0255,-0.0259,-0.0261,-0.0499,-0.0502,0,0,0,0,0,0,0.0062,0.0046,-0.0087,-0.0092,0.0001,-0.0063,-0.0073,-0.0106,-0.0159,-0.0165,-0.0118,-0.0115,-0.0207,-0.0217,-0.0227,-0.0331,-0.0256,-0.0262,-0.0265,-0.0496,-0.05,-0.0503,0,0,0,0,0,0,0.0066,0.005,-0.0083,-0.0023,-0.004,-0.0069,-0.0105,-0.0109,-0.0133,-0.0168,-0.0173,-0.0138,-0.0205,-0.0219,-0.0294,-0.0334,-0.0265,-0.027,-0.0493,-0.0497,-0.0501,-0.0539,0,0,0,0,0,0,0.0071,0.0052,0.002,-0.0024,-0.0043,-0.0147,-0.0107,-0.0112,-0.0143,-0.014,-0.0188,-0.0193,-0.0204,-0.0285,-0.03,-0.0341,-0.0275,-0.049,-0.0495,-0.05,-0.0535,-0.0544,-0.0552,0,0,0,0,0,0.0078,0.0012,0.0018,0.0002,-0.0083,-0.0149,-0.0161,-0.0171,-0.0146,-0.0179,-0.0201,-0.0192,-0.0327,-0.0293,-0.0309,-0.0354,-0.0487,-0.0494,-0.0499,-0.0531,-0.0542,-0.0552,0,0,0,0,0,0,0.005,0.0006,0.0012,-0.0069,-0.0105,-0.0147,-0.0189,-0.0183,-0.0228,-0.0224,-0.0235,-0.0246,-0.0323,-0.0345,-0.0306,-0.0439,-0.0404,-0.0413,-0.0422,-0.0433,-0.0442,-0.0436,-0.028,0,0,0,0,0,0.0035,-0.0015,-0.005,-0.0119,-0.0137,-0.016,-0.0189,-0.0193,-0.0232,-0.0248,-0.0276,-0.0316,-0.0367,-0.0401,-0.045,-0.0536,-0.0548,-0.0575,-0.0584,-0.0591,-0.06,-0.0649,-0.0663,-0.0522,-0.0522,-0.0522,0,0,0.0001,-0.0028,-0.0059,-0.0125,-0.0154,-0.0206,-0.0173,-0.0229,-0.0269,-0.0257,-0.033,-0.0352,-0.0396,-0.0478,-0.0515,-0.0499,-0.0641,-0.0599,-0.0604,-0.061,-0.0657,-0.067,-0.0682,-0.0526,-0.0526,-0.0525,0,0,-0.0086,-0.0112,-0.0173,-0.0202,-0.0245,-0.0259,-0.0273,-0.0316,-0.0329,-0.0402,-0.0395,-0.0442,-0.0529,-0.0562,-0.059,-0.0688,-0.0682,-0.0703,-0.0751,-0.0799,-0.081,-0.082,-0.0857,-0.087,-0.0712,-0.0712,-0.0712,0,-0.0122,-0.0199,-0.0205,-0.0262,-0.0292,-0.0282,-0.0344,-0.0372,-0.043,-0.0452,-0.0432,-0.0542,-0.0571,-0.0661,-0.0685,-0.0707,-0.0725,-0.07,-0.0807,-0.0817,-0.0827,-0.0862,-0.0876,-0.0714,-0.0714,-0.0714,-0.0713,0,-0.0242,-0.0295,-0.0339,-0.0394,-0.0429,-0.0488,-0.0505,-0.0539,-0.054,-0.0556,-0.0631,-0.0665,-0.0721,-0.0742,-0.0744,-0.0833,-0.0821,-0.0804,-0.077,-0.0842,-0.0876,-0.089,-0.0718,-0.0717,-0.0716,-0.0716,0,0,-0.0352,-0.0408,-0.0425,-0.045,-0.0496,-0.0538,-0.0597,-0.0651,-0.0681,-0.072,-0.0772,-0.0845,-0.083,-0.0861,-0.0866,-0.0908,-0.0986,-0.0886,-0.0887,-0.0905,-0.1088,-0.1103,-0.1118,-0.098,-0.0982,-0.0985,-0.1085,0,-0.0446,-0.055,-0.0556,-0.0651,-0.0701,-0.0691,-0.0743,-0.0778,-0.0794,-0.084,-0.0859,-0.0912,-0.0885,-0.0905,-0.0945,-0.0968,-0.1023,-0.096,-0.1031,-0.1033,-0.1023,-0.1136,-0.1152,-0.1245,-0.1098,-0.11,-0.1102,0,-0.057,-0.0612,-0.0711,-0.075,-0.0772,-0.0818,-0.0868,-0.0911,-0.0951,-0.096,-0.0994,-0.0993,-0.1056,-0.1016,-0.1103,-0.106,-0.1089,-0.1104,-0.1108,-0.1118,-0.1074,-0.1151,-0.1275,-0.129,-0.1122,-0.112,-0.1119,0,-0.0644,-0.0725,-0.0795,-0.0816,-0.0863,-0.0897,-0.0918,-0.0954,-0.0986,-0.103,-0.1051,-0.1101,-0.113,-0.1169,-0.1182,-0.1152,-0.1269,-0.1231,-0.1281,-0.1281,-0.1309,-0.1308,-0.1442,-0.1322,-0.1322,-0.1322,-0.1321,0,-0.075,-0.0812,-0.0829,-0.0873,-0.0942,-0.0949,-0.1017,-0.1037,-0.1069,-0.1117,-0.1111,-0.1156,-0.1169,-0.1217,-0.1228,-0.1299,-0.1311,-0.1322,-0.1325,-0.1325,-0.1324,-0.1346,-0.1342,-0.1325,-0.1325,-0.1324,-0.1323,0,-0.0846,-0.086,-0.0936,-0.0973,-0.0984,-0.1034,-0.1066,-0.1109,-0.1123,-0.1184,-0.1199,-0.1223,-0.1279,-0.1295,-0.1362,-0.1369,-0.1454,-0.1449,-0.1441,-0.1442,-0.1492,-0.1489,-0.1648,-0.1671,-0.1533,-0.1535,-0.1536,0,-0.0914,-0.0961,-0.1003,-0.1034,-0.1057,-0.1107,-0.1139,-0.1147,-0.1181,-0.1228,-0.1266,-0.132,-0.1365,-0.1456,-0.148,-0.1532,-0.153,-0.1582,-0.1538,-0.1537,-0.1535,-0.1533,-0.1539,-0.1592,-0.1594,-0.1595,-0.1596,0,-0.1035,-0.1039,-0.1085,-0.1133,-0.1171,-0.121,-0.1247,-0.1273,-0.1286,-0.1325,-0.1382,-0.1416,-0.1484,-0.154,-0.1592,-0.1615,-0.1609,-0.1609,-0.1624,-0.1626,-0.162,-0.1627,-0.1467,-0.1606,-0.1605,-0.1604,-0.1604,-0.1603,-0.1122,-0.1164,-0.12,-0.1251,-0.1279,-0.1314,-0.1356,-0.1375,-0.1422,-0.1477,-0.1479,-0.1541,-0.1579,-0.1648,-0.1674,-0.1723,-0.1708,-0.1729,-0.1735,-0.1741,-0.1747,-0.1609,-0.1733,-0.1732,-0.1732,-0.1732,-0.1732,0,-0.1245,-0.1267,-0.1314,-0.1365,-0.1406,-0.1393,-0.1433,-0.1468,-0.1523,-0.1558,-0.1601,-0.1667,-0.172,-0.1748,-0.1801,-0.1836,-0.1834,-0.185,-0.1849,-0.1855,-0.1756,-0.1739,-0.185,-0.185,-0.185,-0.185,-0.185,-0.185,-0.1314,-0.1385,-0.1393,-0.1478,-0.1499,-0.1559,-0.1584,-0.1616,-0.1644,-0.1717,-0.1761,-0.1777,-0.181,-0.1865,-0.1914,-0.1921,-0.1942,-0.196,-0.1966,-0.1874,-0.1862,-0.185,-0.1835,-0.1964,-0.1964,-0.2061,-0.2062,-0.2063]},{"header":{"parameterUnit":"m.s-1","parameterCategory":1,"la1":30.2991,"la2":30.254,"lo1":-89.0895,"lo2":-89.0444,"dx":0.0017,"dy":0.0017,"nx":28,"ny":28,"refTime":"2022-12-16T15:00:00:Z","depth":0,"parameterNumber":3,"parameterNumberName":"V-component_of_WINDS"},"data":[0,0,0,0,0,0,0,0,0,0,0,0,0,0,0,0,0,0,0,0,0,0,0,0,0,0,0,0,0,0,0,0,0,0,0,0,0,0,0,0,0,0,0,0,0,0,0,0,0,0,0,0,0,0,0,0,0,0,-5.856,-5.8562,0,-5.8754,-5.8756,-5.8758,-5.8661,-5.8656,-5.8651,-5.8646,-5.8842,-5.8851,-5.8861,0,0,0,0,0,0,0,0,0,0,0,0,0,-5.8103,-5.8112,-5.856,-5.8562,-5.8565,-5.8754,-5.8756,-5.8759,-5.8662,-5.8655,-5.8649,-5.8644,-5.8838,-5.885,-5.8862,0,0,0,0,0,0,0,0,0,0,0,0,0,-5.8299,-5.8115,-5.8559,-5.8539,-5.8539,-5.8753,-5.8756,-5.876,-5.8663,-5.8655,-5.8648,-5.8641,-5.8835,-5.8849,-5.8864,-5.9108,0,0,-5.8909,-5.8916,0,0,0,0,0,0,0,0,-5.8288,-5.8316,-5.854,-5.8541,-5.8541,-5.8675,-5.8667,-5.8876,-5.8665,-5.8616,-5.8646,-5.8637,-5.8792,-5.881,-5.8863,-5.9117,-5.9126,-5.8911,-5.892,-5.8926,-5.893,0,0,0,0,0,0,0,-5.8275,-5.8307,-5.8636,-5.8543,-5.8544,-5.8519,-5.8539,-5.8706,-5.8744,-5.862,-5.8613,-5.8637,-5.8791,-5.8849,-5.8867,-5.9128,-5.891,-5.8923,-5.8933,-5.8938,-5.9593,-5.9601,0,0,0,0,0,0,-5.8263,-5.8297,-5.863,-5.8642,-5.8394,-5.8534,-5.8556,-5.864,-5.8742,-5.8751,-5.8644,-5.8632,-5.8827,-5.885,-5.8874,-5.9167,-5.8926,-5.894,-5.8948,-5.9584,-5.9595,-5.9604,0,0,0,0,0,0,-5.8253,-5.8293,-5.8622,-5.8468,-5.8508,-5.855,-5.8645,-5.8648,-5.8706,-5.8761,-5.8766,-5.8696,-5.8822,-5.8853,-5.9051,-5.9173,-5.8947,-5.896,-5.9575,-5.9588,-5.9599,-5.9757,0,0,0,0,0,0,-5.824,-5.829,-5.8385,-5.8471,-5.8517,-5.8798,-5.8653,-5.8657,-5.8732,-5.8719,-5.8811,-5.8819,-5.8819,-5.9029,-5.9066,-5.9189,-5.8972,-5.9564,-5.958,-5.9595,-5.9741,-5.9773,-5.9801,0,0,0,0,0,-5.8224,-5.842,-5.839,-5.8431,-5.8635,-5.8805,-5.8831,-5.8828,-5.8742,-5.8837,-5.8872,-5.8816,-5.9153,-5.905,-5.9091,-5.922,-5.9556,-5.9576,-5.9594,-5.9727,-5.9767,-5.98,0,0,0,0,0,0,-5.8346,-5.8431,-5.8398,-5.8628,-5.871,-5.8788,-5.8908,-5.8869,-5.8977,-5.896,-5.8949,-5.8971,-5.9177,-5.9218,-5.9102,-5.9462,-5.9341,-5.9369,-5.9429,-5.9467,-5.9496,-5.9483,-5.8984,0,0,0,0,0,-5.84,-5.8532,-5.8598,-5.8795,-5.8838,-5.8866,-5.894,-5.893,-5.9014,-5.9048,-5.9098,-5.9181,-5.9305,-5.9388,-5.9505,-5.9745,-5.9764,-5.9854,-5.9884,-5.9909,-5.9934,-6.0064,-6.0105,-5.9666,-5.9666,-5.9666,0,0,-5.8512,-5.8575,-5.8659,-5.8821,-5.8883,-5.902,-5.8896,-5.9045,-5.9146,-5.907,-5.9262,-5.9301,-5.9393,-5.9613,-5.9713,-5.9654,-6.0059,-5.9933,-5.9952,-5.9964,-6.0088,-6.013,-6.0166,-5.9679,-5.9677,-5.9675,0,0,-5.8787,-5.8847,-5.9018,-5.9084,-5.918,-5.9197,-5.9239,-5.9323,-5.9347,-5.9538,-5.9484,-5.9603,-5.9818,-5.9886,-5.9949,-6.0249,-6.0202,-6.0287,-6.0445,-6.0573,-6.0607,-6.0638,-6.0746,-6.0785,-6.0312,-6.0312,-6.0312,0,-5.8914,-5.9119,-5.911,-5.9265,-5.9338,-5.9276,-5.9449,-5.9512,-5.9642,-5.9694,-5.9625,-5.9894,-5.9951,-6.0187,-6.0261,-6.0313,-6.036,-6.0278,-6.0603,-6.0634,-6.0662,-6.0765,-6.0806,-6.0322,-6.0321,-6.032,-6.0319,0,-5.9271,-5.9414,-5.954,-5.9668,-5.9755,-5.9917,-5.9933,-6.0022,-6.0004,-6.0028,-6.0224,-6.0291,-6.0421,-6.0476,-6.0459,-6.071,-6.0671,-6.0603,-6.0482,-6.0714,-6.0811,-6.085,-6.0336,-6.0332,-6.033,-6.0327,0,0,-5.963,-5.9751,-5.9798,-5.9856,-5.9958,-6.0067,-6.0226,-6.0355,-6.0432,-6.0523,-6.0657,-6.0839,-6.0778,-6.0849,-6.0839,-6.0951,-6.1186,-6.087,-6.0872,-6.0928,-6.1468,-6.152,-6.1566,-6.1155,-6.1162,-6.1168,-6.1461,0,-5.9913,-6.0194,-6.0191,-6.045,-6.0582,-6.0525,-6.0664,-6.0741,-6.0768,-6.0882,-6.091,-6.1042,-6.0949,-6.0992,-6.11,-6.1135,-6.1295,-6.1113,-6.128,-6.1286,-6.1261,-6.1616,-6.1672,-6.1945,-6.1499,-6.1505,-6.151,0,-6.0281,-6.0386,-6.066,-6.0743,-6.0798,-6.0923,-6.1041,-6.1151,-6.1237,-6.1248,-6.1328,-6.1301,-6.1462,-6.1335,-6.1557,-6.1434,-6.1501,-6.1528,-6.1539,-6.1556,-6.1413,-6.1645,-6.2031,-6.2073,-6.1569,-6.1564,-6.156,0,-6.0518,-6.0727,-6.0918,-6.0969,-6.107,-6.1159,-6.1205,-6.1284,-6.1361,-6.1463,-6.1514,-6.1633,-6.1699,-6.1791,-6.1797,-6.1703,-6.2022,-6.1894,-6.2036,-6.2036,-6.2107,-6.2103,-6.2513,-6.2148,-6.2147,-6.2146,-6.2145,0,-6.0836,-6.1006,-6.1026,-6.1143,-6.1332,-6.1326,-6.1512,-6.1549,-6.162,-6.1743,-6.1699,-6.1816,-6.1815,-6.1934,-6.1938,-6.2123,-6.2152,-6.2166,-6.2166,-6.2171,-6.217,-6.2217,-6.2199,-6.2157,-6.2155,-6.2153,-6.2151,0,-6.1133,-6.1153,-6.1357,-6.1436,-6.146,-6.1596,-6.1663,-6.1775,-6.1797,-6.1954,-6.199,-6.2025,-6.2162,-6.2176,-6.2335,-6.2338,-6.2561,-6.2539,-6.2533,-6.253,-6.2672,-6.266,-6.3128,-6.3189,-6.2782,-6.2786,-6.2789,0,-6.1336,-6.1465,-6.1558,-6.1639,-6.169,-6.1819,-6.1899,-6.1897,-6.1981,-6.2089,-6.2188,-6.2321,-6.2428,-6.2649,-6.2688,-6.281,-6.2792,-6.2947,-6.281,-6.2812,-6.2796,-6.279,-6.2803,-6.2975,-6.2979,-6.2983,-6.2986,0,-6.1694,-6.1697,-6.1814,-6.1935,-6.2031,-6.2126,-6.2214,-6.2282,-6.2291,-6.2388,-6.2528,-6.2611,-6.2774,-6.2907,-6.3026,-6.3072,-6.3032,-6.3028,-6.3068,-6.3076,-6.3068,-6.3077,-6.2608,-6.3018,-6.3015,-6.3013,-6.3011,-6.301,-6.1951,-6.2064,-6.2148,-6.2279,-6.2346,-6.243,-6.2539,-6.2575,-6.2693,-6.2826,-6.2817,-6.2973,-6.3055,-6.3211,-6.3266,-6.3387,-6.3335,-6.3392,-6.3407,-6.3421,-6.3437,-6.3047,-6.3408,-6.3407,-6.3406,-6.3406,-6.3405,0,-6.2309,-6.236,-6.2481,-6.2607,-6.271,-6.2663,-6.2758,-6.2848,-6.2986,-6.3066,-6.3172,-6.3333,-6.3462,-6.3511,-6.3636,-6.3724,-6.3708,-6.3757,-6.3752,-6.3763,-6.3475,-6.343,-6.3768,-6.3768,-6.3767,-6.3767,-6.3767,-6.3767,-6.2508,-6.2697,-6.271,-6.2931,-6.298,-6.3134,-6.3192,-6.3269,-6.3334,-6.3517,-6.3624,-6.3655,-6.3723,-6.3853,-6.3968,-6.3979,-6.4028,-6.4086,-6.4089,-6.382,-6.3783,-6.3748,-6.3705,-6.4096,-6.4096,-6.4367,-6.4369,-6.4371]}]]